Time,TemperatureF,DewpointF,PressureIn,WindDirection,WindDirectionDegrees,WindSpeedMPH,WindSpeedGustMPH,Humidity,HourlyPrecipIn,Conditions,Clouds,dailyrainin,SolarRadiationWatts/m^2,SoftwareType,DateUTC
2013-08-15 00:21:00,62.0,62.0,29.88,East,97,10.0,18.0,100,0.00,,,0.00,10.000000,,2013-08-15 07:21:00,
2013-08-15 00:32:00,62.0,62.0,29.88,East,97,10.0,18.0,100,0.00,,,0.00,10.000000,,2013-08-15 07:32:00,
2013-08-15 00:41:00,62.0,62.0,29.88,East,97,10.0,18.0,100,0.00,,,0.00,10.000000,,2013-08-15 07:41:00,
2013-08-15 00:52:00,62.0,62.0,29.88,East,97,10.0,18.0,100,0.00,,,0.00,10.000000,,2013-08-15 07:52:00,
2013-08-15 01:21:00,61.0,61.0,29.87,East,95,9.0,15.0,100,0.00,,,0.00,12.000000,,2013-08-15 08:21:00,
2013-08-15 01:33:00,61.0,61.0,29.87,East,95,9.0,15.0,100,0.00,,,0.00,12.000000,,2013-08-15 08:33:00,
2013-08-15 01:41:00,61.0,61.0,29.87,East,95,9.0,15.0,100,0.00,,,0.00,12.000000,,2013-08-15 08:41:00,
2013-08-15 01:51:00,61.0,61.0,29.87,East,95,9.0,15.0,100,0.00,,,0.00,12.000000,,2013-08-15 08:51:00,
2013-08-15 02:21:00,61.0,61.0,29.87,NE,54,5.0,13.0,100,0.00,,,0.00,12.000000,,2013-08-15 09:21:00,
2013-08-15 02:33:00,61.0,61.0,29.87,NE,54,5.0,13.0,100,0.00,,,0.00,12.000000,,2013-08-15 09:33:00,
2013-08-15 02:42:00,61.0,61.0,29.87,NE,54,5.0,13.0,100,0.00,,,0.00,12.000000,,2013-08-15 09:42:00,
2013-08-15 02:53:00,61.0,61.0,29.87,NE,54,5.0,13.0,100,0.00,,,0.00,12.000000,,2013-08-15 09:53:00,
2013-08-15 03:22:00,59.0,59.0,29.86,NE,45,4.0,13.0,100,0.00,,,0.00,9.000000,,2013-08-15 10:22:00,
2013-08-15 03:32:00,59.0,59.0,29.86,NE,45,4.0,13.0,100,0.00,,,0.00,9.000000,,2013-08-15 10:32:00,
2013-08-15 03:42:00,59.0,59.0,29.86,NE,45,4.0,13.0,100,0.00,,,0.00,9.000000,,2013-08-15 10:42:00,
2013-08-15 03:52:00,59.0,59.0,29.86,NE,45,4.0,13.0,100,0.00,,,0.00,9.000000,,2013-08-15 10:52:00,
2013-08-15 04:22:00,60.0,59.0,29.86,NNE,31,5.0,11.0,98,0.00,,,0.00,6.000000,,2013-08-15 11:22:00,
2013-08-15 04:32:00,60.0,59.0,29.86,NNE,31,5.0,11.0,98,0.00,,,0.00,6.000000,,2013-08-15 11:32:00,
2013-08-15 04:42:00,60.0,59.0,29.86,NNE,31,5.0,11.0,98,0.00,,,0.00,6.000000,,2013-08-15 11:42:00,
2013-08-15 04:51:00,60.0,59.0,29.86,NNE,31,5.0,11.0,98,0.00,,,0.00,6.000000,,2013-08-15 11:51:00,
2013-08-15 05:21:00,61.0,60.0,29.86,NNE,21,5.0,9.0,98,0.00,,,-99.99,4.000000,,2013-08-15 12:21:00,
2013-08-15 05:31:00,61.0,60.0,29.86,NNE,21,5.0,9.0,98,0.00,,,-99.99,4.000000,,2013-08-15 12:31:00,
2013-08-15 05:42:00,61.0,60.0,29.86,NNE,21,5.0,9.0,98,0.00,,,-99.99,4.000000,,2013-08-15 12:42:00,
2013-08-15 05:51:00,61.0,60.0,29.86,NNE,21,5.0,9.0,98,0.00,,,-99.99,4.000000,,2013-08-15 12:51:00,
2013-08-15 06:21:00,61.0,61.0,29.87,NNE,23,4.0,10.0,100,0.00,,,0.00,5.000000,,2013-08-15 13:21:00,
2013-08-15 06:32:00,61.0,61.0,29.87,NNE,23,4.0,10.0,100,0.00,,,0.00,5.000000,,2013-08-15 13:32:00,
2013-08-15 06:42:00,61.0,61.0,29.87,NNE,23,4.0,10.0,100,0.00,,,0.00,5.000000,,2013-08-15 13:42:00,
2013-08-15 06:52:00,61.0,61.0,29.87,NNE,23,4.0,10.0,100,0.00,,,0.00,5.000000,,2013-08-15 13:52:00,
2013-08-15 07:22:00,61.0,60.0,29.88,WNW,286,4.0,11.0,97,0.00,,,0.00,8.000000,,2013-08-15 14:22:00,
2013-08-15 07:32:00,61.0,60.0,29.88,WNW,286,4.0,11.0,97,0.00,,,0.00,8.000000,,2013-08-15 14:32:00,
2013-08-15 07:42:00,61.0,60.0,29.88,WNW,286,4.0,11.0,97,0.00,,,0.00,8.000000,,2013-08-15 14:42:00,
2013-08-15 07:52:00,61.0,60.0,29.88,WNW,286,4.0,11.0,97,0.00,,,0.00,8.000000,,2013-08-15 14:52:00,
2013-08-15 08:23:00,62.0,62.0,29.89,ENE,59,3.0,9.0,100,0.00,,,0.00,38.000000,,2013-08-15 15:23:00,
2013-08-15 08:34:00,62.0,62.0,29.89,ENE,59,3.0,9.0,100,0.00,,,0.00,38.000000,,2013-08-15 15:34:00,
2013-08-15 08:43:00,62.0,62.0,29.89,ENE,59,3.0,9.0,100,0.00,,,0.00,38.000000,,2013-08-15 15:43:00,
2013-08-15 08:54:00,62.0,62.0,29.89,ENE,59,3.0,9.0,100,0.00,,,0.00,38.000000,,2013-08-15 15:54:00,
2013-08-15 08:55:00,64.0,64.0,29.91,East,97,3.0,7.0,100,0.00,,,0.00,96.000000,,2013-08-15 15:55:00,
2013-08-15 09:26:00,64.0,64.0,29.91,East,97,3.0,7.0,100,0.00,,,0.00,96.000000,,2013-08-15 16:26:00,
2013-08-15 09:35:00,64.0,64.0,29.91,East,97,3.0,7.0,100,0.00,,,0.00,96.000000,,2013-08-15 16:35:00,
2013-08-15 09:44:00,64.0,64.0,29.91,East,97,3.0,7.0,100,0.00,,,0.00,96.000000,,2013-08-15 16:44:00,
2013-08-15 09:55:00,-999.0,-99.9,29.92,SSE,148,3.0,6.0,-999,-99.99,,,-99.99,201.000000,,2013-08-15 16:55:00,
2013-08-15 10:30:00,67.0,-99.9,29.92,SSE,148,3.0,6.0,100,0.00,,,0.00,201.000000,,2013-08-15 17:30:00,
2013-08-15 10:38:00,67.0,67.0,29.92,SSE,148,3.0,6.0,100,0.00,,,0.00,201.000000,,2013-08-15 17:38:00,
2013-08-15 10:55:00,-999.0,-99.9,29.93,SSE,165,4.0,6.0,-999,0.00,,,0.00,274.000000,,2013-08-15 17:55:00,
2013-08-15 11:35:00,-999.0,-99.9,29.93,SSE,165,4.0,6.0,-999,0.00,,,0.00,274.000000,,2013-08-15 18:35:00,
2013-08-15 11:40:00,-999.0,-99.9,29.93,SSE,165,4.0,6.0,96,0.00,,,0.00,274.000000,,2013-08-15 18:40:00,
2013-08-15 11:49:00,68.0,67.0,29.93,SSE,165,4.0,6.0,96,0.00,,,0.00,274.000000,,2013-08-15 18:49:00,
2013-08-15 11:55:00,68.0,67.0,29.92,SSE,161,4.0,7.0,96,0.00,,,0.00,288.000000,,2013-08-15 18:55:00,
2013-08-15 12:34:00,-999.0,-99.9,29.92,SSE,161,4.0,7.0,-999,-99.99,,,-99.99,288.000000,,2013-08-15 19:34:00,
2013-08-15 12:39:00,68.0,67.0,29.92,SSE,161,4.0,7.0,96,0.00,,,0.00,288.000000,,2013-08-15 19:39:00,
2013-08-15 12:49:00,68.0,67.0,29.92,SSE,161,4.0,7.0,96,0.00,,,0.00,288.000000,,2013-08-15 19:49:00,
2013-08-15 13:28:00,70.0,65.0,29.90,SW,220,6.0,9.0,84,0.00,,,0.00,458.000000,,2013-08-15 20:28:00,
2013-08-15 13:34:00,70.0,65.0,29.90,SW,220,6.0,9.0,84,0.00,,,0.00,458.000000,,2013-08-15 20:34:00,
2013-08-15 13:44:00,70.0,65.0,29.90,SW,220,6.0,9.0,84,0.00,,,0.00,458.000000,,2013-08-15 20:44:00,
2013-08-15 13:53:00,70.0,65.0,29.90,SW,220,6.0,9.0,84,0.00,,,0.00,458.000000,,2013-08-15 20:53:00,
2013-08-15 13:55:00,73.0,66.0,29.90,SW,223,8.0,11.0,78,0.00,,,0.00,623.000000,,2013-08-15 20:55:00,
2013-08-15 14:49:00,73.0,66.0,29.90,SW,223,8.0,11.0,78,0.00,,,0.00,623.000000,,2013-08-15 21:49:00,
2013-08-15 14:55:00,73.0,66.0,29.89,SW,227,8.0,12.0,78,0.00,,,0.00,735.000000,,2013-08-15 21:55:00,
2013-08-15 15:29:00,73.0,66.0,29.89,SW,227,8.0,12.0,78,0.00,,,0.00,735.000000,,2013-08-15 22:29:00,
2013-08-15 15:40:00,73.0,66.0,29.89,SW,227,8.0,12.0,78,0.00,,,0.00,735.000000,,2013-08-15 22:40:00,
2013-08-15 15:49:00,73.0,66.0,29.89,SW,227,8.0,12.0,78,0.00,,,0.00,735.000000,,2013-08-15 22:49:00,
2013-08-15 15:55:00,72.0,65.0,29.88,WSW,247,11.0,16.0,78,0.00,,,0.00,782.000000,,2013-08-15 22:55:00,
2013-08-15 16:34:00,-999.0,-99.9,29.88,WSW,247,11.0,16.0,78,0.00,,,0.00,782.000000,,2013-08-15 23:34:00,
2013-08-15 16:40:00,72.0,65.0,29.88,WSW,247,11.0,16.0,78,0.00,,,0.00,782.000000,,2013-08-15 23:40:00,
2013-08-15 16:48:00,72.0,65.0,29.88,WSW,247,11.0,16.0,78,0.00,,,0.00,782.000000,,2013-08-15 23:48:00,
2013-08-15 17:24:00,70.0,64.0,29.88,WSW,247,10.0,17.0,80,0.00,,,0.00,627.000000,,2013-08-16 00:24:00,
2013-08-15 17:46:00,70.0,64.0,29.88,WSW,247,10.0,17.0,80,0.00,,,0.00,627.000000,,2013-08-16 00:46:00,
2013-08-15 17:52:00,70.0,64.0,29.88,WSW,247,10.0,17.0,80,0.00,,,0.00,627.000000,,2013-08-16 00:52:00,
2013-08-15 18:26:00,69.0,65.0,29.86,WSW,253,12.0,18.0,86,0.00,,,0.00,404.000000,,2013-08-16 01:26:00,
2013-08-15 18:42:00,-999.0,-99.9,29.86,WSW,253,12.0,-999.0,-999,-99.99,,,-99.99,,,2013-08-16 01:42:00,
2013-08-15 18:54:00,69.0,65.0,29.86,WSW,253,12.0,18.0,86,0.00,,,0.00,404.000000,,2013-08-16 01:54:00,
2013-08-15 19:21:00,64.0,64.0,29.86,West,259,10.0,19.0,100,0.00,,,0.00,80.000000,,2013-08-16 02:21:00,
2013-08-15 19:32:00,64.0,64.0,29.86,West,259,10.0,19.0,100,0.00,,,0.00,80.000000,,2013-08-16 02:32:00,
2013-08-15 19:43:00,64.0,64.0,29.86,West,259,10.0,19.0,100,0.00,,,0.00,80.000000,,2013-08-16 02:43:00,
2013-08-15 19:52:00,64.0,64.0,29.86,West,259,10.0,19.0,100,0.00,,,0.00,80.000000,,2013-08-16 02:52:00,
2013-08-15 20:22:00,64.0,64.0,29.87,West,261,8.0,16.0,100,0.00,,,0.00,15.000000,,2013-08-16 03:22:00,
2013-08-15 20:33:00,64.0,64.0,29.87,West,261,8.0,16.0,100,0.00,,,0.00,15.000000,,2013-08-16 03:33:00,
2013-08-15 20:43:00,64.0,64.0,29.87,West,261,8.0,16.0,100,0.00,,,0.00,15.000000,,2013-08-16 03:43:00,
2013-08-15 20:53:00,64.0,64.0,29.87,West,261,8.0,16.0,100,0.00,,,0.00,15.000000,,2013-08-16 03:53:00,
2013-08-15 21:23:00,62.0,62.0,29.89,West,266,4.0,12.0,100,0.00,,,0.00,4.000000,,2013-08-16 04:23:00,
2013-08-15 21:33:00,62.0,62.0,29.89,West,266,4.0,12.0,100,0.00,,,0.00,4.000000,,2013-08-16 04:33:00,
2013-08-15 21:42:00,62.0,62.0,29.89,West,266,4.0,12.0,100,0.00,,,0.00,4.000000,,2013-08-16 04:42:00,
2013-08-15 21:53:00,62.0,62.0,29.89,West,266,4.0,12.0,100,0.00,,,0.00,4.000000,,2013-08-16 04:53:00,
2013-08-15 22:21:00,62.0,62.0,29.91,East,100,2.0,6.0,100,0.00,,,0.00,5.000000,,2013-08-16 05:21:00,
2013-08-15 22:32:00,62.0,62.0,29.91,East,100,2.0,6.0,100,0.00,,,0.00,5.000000,,2013-08-16 05:32:00,
2013-08-15 22:42:00,62.0,62.0,29.91,East,100,2.0,6.0,100,0.00,,,0.00,5.000000,,2013-08-16 05:42:00,
2013-08-15 22:53:00,62.0,62.0,29.91,East,100,2.0,6.0,100,0.00,,,0.00,5.000000,,2013-08-16 05:53:00,